LUCH 5A

Last updated on Aug. 15, 2020, 5:34 a.m. UTC

1 37951U 11074B   20227.63443538 -.00000048  00000-0  00000-0 0  9990
2 37951   3.3907 113.2718 0003999  15.7724 229.9243  1.00269744 31804
UTC
Height (km)
Latitude
Longitude
Inclination
Orbital Period
UTC large
Height (km)
Speed (km/s)
/
Latitude / Longitude
Inclination (degrees)
Orbital Period (minutes)
Azimuth
Elevation
Range (km)
Doppler Factor
iOS Compass Heading
iOS Angle

Next 30 passes for location: Hong Kong

Rise time Rise Azimuth (degrees) Set time Set Azimuth (degrees) Duration Max altitude (degrees)

No matching passes for this satellites